QPF
0.00 0.00 0.00 0.00 0.00 0.00 0.00 0.00 0.00 0.01 0.00 0.00 0.00 0.00 0.00 0.00 0.00 0.00 0.01 0.01 0.01 0.00 0.00 0.00 0.00 0.00 0.00 0.00 0.00 0.00 0.00 0.00
0.00 0.00 0.00 0.00 0.00 0.00 0.00 0.00 0.00 0.03 0.00 0.00 0.00 0.00 0.00 0.00 0.00 0.00 0.00 0.01 0.00 0.00 0.00 0.00 0.00 0.00 0.00 0.00 0.00 0.00 0.00 0.00
0.00 0.00 0.00 0.00 0.00 0.00 0.00 0.00 0.00 0.00 0.00 0.00 0.00 0.00 0.00 0.00 0.00 0.00 0.00 0.00 0.00 0.00 0.00 0.00 0.00 0.00 0.00 0.00 0.00 0.00 0.00 0.00
0.00 0.00 0.00 0.00 0.00 0.00 0.00 0.00 0.00 0.00 0.00 0.00 0.00 0.00 0.00 0.00 0.01 0.02 0.01 0.00 0.00 0.00 0.00 0.00 0.00 0.00 0.00 0.00 0.00 0.00 0.00 0.00
0.00 0.00 0.00 0.00 0.00 0.00 0.00 0.00 0.00 0.00 0.00 0.00 0.00 0.00 0.00 0.00 0.00 0.00 0.01 0.00 0.00 0.00 0.00 0.00 0.00 0.00 0.00 0.00 0.00 0.00 0.00 0.00
0.00 0.00 0.00 0.00 0.00 0.00 0.00 0.00 0.00 0.00 0.00 0.00 0.00 0.00 0.00 0.00 0.00 0.01 0.01 0.01 0.00 0.00 0.00 0.00 0.00 0.00 0.00 0.00 0.00 0.00 0.00 0.00
0.00 0.00 0.00 0.00 0.00 0.00 0.00 0.00 0.00 0.00 0.00 0.00 0.00 0.00 0.00 0.00 0.00 0.01 0.01 0.01 0.01 0.00 0.00 0.00 0.00 0.00 0.00 0.00 0.00 0.00 0.01 0.00
0.00 0.00 0.00 0.00 0.00 0.00 0.00 0.00 0.00 0.00 0.00 0.01 0.04 0.04 0.02 0.01 0.00 0.01 0.01 0.01 0.01 0.01 0.01 0.00 0.00 0.00 0.00 0.00 0.00 0.01 0.01 0.00
0.00 0.00 0.00 0.00 0.00 0.00 0.00 0.00 0.00 0.00 0.01 0.01 0.05 0.08 0.03 0.01 0.00 0.00 0.01 0.01 0.01 0.01 0.01 0.00 0.00 0.00 0.00 0.00 0.00 0.00 0.00 0.00
0.00 0.00 0.00 0.00 0.00 0.01 0.00 0.00 0.00 0.00 0.03 0.06 0.04 0.10 0.05 0.02 0.01 0.00 0.02 0.04 0.04 0.02 0.01 0.00 0.00 0.00 0.00 0.00 0.01 0.01 0.00 0.00
0.00 0.00 0.00 0.00 0.00 0.01 0.00 0.00 0.00 0.00 0.00 0.00 0.00 0.00 0.00 0.01 0.01 0.02 0.06 0.06 0.03 0.01 0.00 0.00 0.00 0.00 0.00 0.00 0.00 0.02 0.02 0.01
0.00 0.00 0.00 0.00 0.00 0.00 0.00 0.00 0.00 0.00 0.00 0.00 0.00 0.00 0.01 0.02 0.04 0.06 0.05 0.04 0.03 0.02 0.00 0.00 0.00 0.00 0.01 0.03 0.05 0.03 0.02 0.03
0.00 0.00 0.00 0.00 0.00 0.00 0.00 0.00 0.00 0.00 0.00 0.00 0.00 0.01 0.01 0.01 0.03 0.05 0.05 0.05 0.03 0.01 0.02 0.03 0.03 0.01 0.04 0.07 0.06 0.06 0.05 0.01
0.00 0.00 0.00 0.00 0.00 0.00 0.00 0.00 0.00 0.00 0.00 0.00 0.00 0.02 0.01 0.04 0.05 0.06 0.06 0.04 0.02 0.01 0.03 0.02 0.03 0.06 0.06 0.05 0.04 0.03 0.01 0.00
0.00 0.00 0.00 0.00 0.00 0.00 0.00 0.00 0.00 0.00 0.01 0.01 0.01 0.00 0.02 0.03 0.03 0.02 0.02 0.01 0.01 0.00 0.01 0.02 0.02 0.03 0.03 0.05 0.04 0.02 0.01 0.00
0.00 0.00 0.00 0.00 0.00 0.00 0.00 0.02 0.01 0.01 0.02 0.03 0.02 0.00 0.00 0.00 0.00 0.00 0.00 0.00 0.00 0.01 0.02 0.02 0.03 0.03 0.04 0.05 0.04 0.02 0.01 0.00
0.00 0.00 0.00 0.00 0.00 0.01 0.01 0.01 0.00 0.00 0.00 0.00 0.00 0.00 0.00 0.00 0.00 0.00 0.00 0.00 0.00 0.01 0.01 0.01 0.02 0.04 0.05 0.05 0.03 0.02 0.00 0.00
0.00 0.00 0.00 0.00 0.00 0.00 0.00 0.00 0.00 0.00 0.00 0.00 0.00 0.00 0.00 0.00 0.00 0.00 0.00 0.00 0.00 0.01 0.02 0.04 0.03 0.02 0.03 0.01 0.00 0.00 0.00 0.00
0.00 0.00 0.00 0.00 0.00 0.00 0.00 0.00 0.00 0.00 0.00 0.00 0.00 0.00 0.00 0.00 0.00 0.00 0.00 0.01 0.02 0.02 0.01 0.01 0.00 0.00 0.00 0.00 0.00 0.00 0.00 0.00
MSLP
1014.72 1015.57 1015.93 1016.32 1017.02 1017.95 1018.56 1019.06 1019.23 1019.58 1019.89 1020.24 1020.41 1020.75 1020.67 1020.82 1021.04 1021.33 1021.99 1022.17 1022.89 1022.87 1023.05 1023.66 1023.72 1024.04 1024.56 1024.72 1025.01 1025.10 1025.18 1025.49
1014.29 1014.99 1015.47 1015.87 1016.57 1017.41 1017.98 1018.48 1018.78 1019.23 1019.36 1019.54 1019.66 1019.89 1020.20 1020.59 1020.76 1021.22 1021.65 1021.95 1022.43 1022.74 1022.79 1023.32 1023.63 1023.94 1024.26 1024.80 1024.98 1025.26 1025.49 1025.79
1013.41 1014.22 1014.74 1015.28 1015.83 1016.51 1017.12 1017.58 1018.13 1018.56 1018.65 1018.98 1019.20 1019.38 1019.78 1020.02 1020.41 1021.16 1021.45 1021.75 1021.95 1022.30 1022.42 1023.14 1023.38 1023.65 1024.35 1024.68 1024.82 1024.91 1025.17 1025.60
1012.26 1013.15 1013.90 1014.54 1014.96 1015.64 1016.24 1016.84 1017.44 1017.98 1018.23 1018.70 1019.01 1019.18 1019.45 1019.92 1020.26 1021.09 1021.65 1022.20 1021.98 1022.03 1022.83 1023.06 1023.30 1023.44 1023.96 1024.35 1024.60 1024.74 1024.79 1025.56
1010.90 1011.93 1012.75 1013.52 1014.27 1015.04 1015.64 1016.14 1016.65 1017.27 1017.90 1018.06 1018.31 1018.33 1018.57 1019.00 1019.55 1020.14 1020.59 1021.42 1021.84 1021.90 1022.43 1022.92 1023.07 1023.18 1023.54 1024.02 1024.45 1024.80 1024.97 1024.90
1009.48 1010.24 1011.30 1012.34 1013.33 1014.02 1014.84 1015.38 1015.89 1016.49 1017.08 1017.48 1017.79 1017.91 1017.85 1018.26 1019.19 1019.83 1020.42 1021.11 1021.42 1021.77 1022.33 1022.86 1023.11 1023.05 1023.35 1023.74 1024.34 1024.59 1024.77 1024.76
1008.35 1009.12 1010.15 1010.98 1012.11 1013.02 1013.93 1014.53 1015.06 1015.75 1016.45 1016.97 1017.01 1017.21 1017.44 1017.79 1018.91 1019.40 1019.91 1020.67 1021.14 1021.69 1022.09 1022.55 1022.88 1022.84 1023.21 1023.73 1023.97 1024.26 1024.53 1025.09
1007.51 1008.17 1008.94 1009.97 1010.91 1012.09 1013.02 1013.60 1014.04 1014.74 1015.41 1015.99 1016.34 1016.76 1017.18 1017.61 1018.23 1018.70 1019.13 1020.05 1020.88 1021.30 1021.72 1021.96 1022.33 1022.62 1022.99 1023.44 1024.32 1024.73 1025.10 1025.09
1006.50 1007.33 1008.05 1008.93 1009.99 1011.27 1012.15 1012.68 1013.14 1013.74 1014.62 1015.20 1015.72 1016.49 1017.04 1017.29 1017.51 1018.04 1018.73 1019.52 1020.01 1020.64 1021.22 1021.65 1021.87 1022.54 1023.31 1024.13 1024.51 1024.80 1025.22 1025.56
1005.96 1006.44 1007.26 1008.30 1009.33 1010.31 1011.23 1011.86 1012.50 1013.17 1014.20 1014.88 1015.58 1016.51 1016.82 1016.97 1017.30 1018.04 1018.80 1019.32 1019.83 1020.16 1020.92 1021.27 1021.88 1022.30 1023.12 1024.00 1024.53 1024.94 1025.36 1025.58
1006.15 1006.59 1007.08 1007.84 1008.71 1009.93 1010.89 1011.51 1011.97 1012.63 1013.62 1014.50 1015.06 1015.58 1016.05 1016.41 1016.82 1017.75 1018.15 1018.70 1019.26 1020.01 1020.65 1020.99 1021.50 1022.54 1023.41 1024.01 1024.69 1025.13 1025.48 1025.55
1006.33 1006.80 1007.49 1008.13 1008.80 1009.64 1010.42 1011.08 1011.53 1012.14 1012.86 1013.55 1014.31 1014.91 1015.41 1015.85 1016.43 1017.18 1017.65 1018.10 1018.73 1019.42 1019.93 1020.64 1021.48 1022.43 1023.21 1023.97 1024.40 1025.39 1025.88 1025.55
1006.44 1006.90 1007.51 1008.12 1008.83 1009.44 1010.03 1010.66 1011.12 1011.63 1012.26 1013.01 1013.68 1014.42 1015.15 1015.74 1016.30 1016.96 1017.43 1018.31 1018.92 1019.43 1020.13 1020.58 1021.45 1022.10 1022.96 1024.02 1024.79 1025.23 1025.48 1025.33
1006.61 1007.14 1007.49 1008.04 1008.71 1009.34 1010.02 1010.80 1011.26 1011.66 1012.18 1012.99 1013.84 1014.80 1015.59 1016.31 1016.93 1017.40 1017.96 1018.42 1018.86 1019.65 1020.46 1021.09 1022.04 1022.52 1023.26 1023.59 1024.39 1024.90 1024.93 1024.61
1006.79 1007.38 1007.80 1008.47 1009.06 1009.65 1010.27 1011.08 1011.64 1012.42 1013.10 1013.66 1014.43 1015.23 1015.96 1016.59 1017.05 1017.67 1018.21 1018.73 1019.46 1020.16 1020.96 1021.59 1022.04 1022.70 1023.38 1023.77 1024.08 1024.36 1024.33 1024.16
1007.26 1007.58 1008.02 1008.66 1009.33 1009.93 1010.52 1011.47 1012.04 1012.58 1013.29 1014.17 1015.15 1015.91 1016.37 1016.79 1017.12 1017.66 1018.34 1019.06 1019.89 1020.51 1021.10 1021.66 1022.33 1022.83 1023.23 1023.59 1023.96 1023.96 1023.86 1023.58
1008.03 1008.50 1008.91 1009.49 1010.01 1010.39 1011.38 1011.92 1012.66 1013.07 1013.86 1014.71 1015.50 1015.89 1016.50 1017.35 1018.10 1018.70 1019.37 1020.03 1020.53 1020.94 1021.44 1022.00 1022.37 1022.80 1023.21 1023.62 1023.90 1023.67 1023.31 1022.62
1008.96 1009.54 1010.06 1010.45 1010.95 1011.30 1011.95 1012.75 1013.37 1013.89 1014.58 1015.41 1016.18 1016.92 1017.63 1018.32 1018.83 1019.25 1019.76 1020.39 1020.94 1021.42 1021.75 1022.13 1022.46 1022.74 1023.14 1023.29 1023.49 1023.31 1022.65 1022.10
1010.04 1010.67 1011.17 1011.60 1012.02 1012.47 1012.97 1013.50 1014.06 1014.71 1015.42 1016.22 1016.95 1017.49 1018.10 1018.74 1019.36 1019.95 1020.62 1020.90 1021.36 1021.63 1021.88 1022.07 1022.19 1022.29 1022.53 1022.87 1023.14 1022.84 1022.09 1021.52
Thickness
5633 5628 5627 5624 5618 5609 5605 5602 5603 5600 5600 5599 5599 5598 5602 5602 5602 5602 5598 5599 5594 5596 5596 5592 5591 5586 5581 5578 5573 5570 5567 5561
5637 5633 5632 5629 5624 5616 5612 5609 5608 5606 5605 5604 5606 5603 5603 5602 5601 5600 5599 5599 5597 5594 5594 5589 5586 5583 5578 5572 5568 5562 5557 5550
5643 5639 5637 5634 5630 5624 5620 5617 5613 5610 5611 5609 5608 5607 5605 5604 5603 5598 5599 5597 5598 5594 5592 5586 5583 5579 5572 5567 5563 5558 5552 5545
5649 5645 5641 5639 5636 5631 5627 5624 5619 5616 5615 5611 5608 5607 5606 5601 5602 5598 5597 5594 5594 5592 5585 5582 5578 5574 5567 5562 5557 5551 5547 5537
5660 5653 5649 5644 5640 5636 5632 5629 5625 5621 5616 5614 5612 5612 5610 5610 5608 5605 5600 5595 5590 5588 5582 5576 5572 5568 5563 5555 5547 5541 5536 5533
5668 5665 5659 5653 5647 5642 5637 5634 5631 5627 5622 5618 5615 5614 5616 5615 5608 5603 5599 5592 5588 5583 5575 5568 5563 5561 5556 5549 5540 5534 5529 5524
5678 5675 5667 5662 5655 5649 5642 5638 5635 5630 5624 5620 5620 5617 5616 5614 5604 5601 5597 5590 5583 5576 5568 5561 5556 5553 5547 5540 5534 5528 5521 5509
5680 5676 5672 5666 5660 5653 5646 5642 5639 5634 5628 5624 5621 5617 5614 5610 5606 5601 5597 5587 5577 5571 5564 5558 5552 5546 5540 5532 5523 5514 5505 5499
5686 5681 5677 5672 5664 5656 5651 5646 5642 5638 5631 5627 5622 5615 5610 5610 5607 5602 5594 5584 5577 5568 5560 5553 5548 5539 5529 5519 5511 5503 5493 5482
5687 5685 5681 5674 5666 5660 5654 5649 5644 5639 5630 5626 5619 5610 5608 5606 5602 5595 5585 5577 5570 5563 5555 5549 5541 5534 5522 5511 5502 5493 5482 5472
5681 5680 5678 5674 5669 5660 5652 5649 5645 5640 5632 5625 5621 5615 5610 5605 5600 5589 5583 5574 5566 5558 5550 5544 5535 5523 5511 5502 5490 5478 5468 5460
5675 5674 5671 5667 5664 5659 5653 5648 5645 5639 5633 5628 5621 5615 5609 5603 5596 5587 5580 5572 5564 5554 5548 5538 5526 5514 5503 5490 5482 5465 5453 5445
5671 5670 5667 5663 5658 5655 5651 5647 5643 5639 5634 5627 5619 5612 5603 5596 5589 5580 5573 5561 5552 5545 5536 5528 5517 5506 5492 5477 5466 5455 5444 5436
5666 5662 5661 5659 5654 5650 5645 5640 5636 5632 5627 5619 5610 5600 5590 5582 5573 5566 5558 5551 5545 5534 5523 5515 5500 5490 5476 5466 5453 5441 5433 5427
5658 5654 5652 5648 5644 5640 5636 5630 5626 5618 5610 5604 5596 5588 5579 5571 5564 5555 5546 5539 5529 5518 5507 5496 5486 5473 5462 5451 5442 5432 5423 5416
5647 5647 5644 5640 5635 5630 5627 5619 5614 5609 5601 5592 5581 5573 5567 5561 5555 5546 5536 5525 5514 5503 5493 5481 5470 5460 5450 5440 5429 5421 5414 5407
5635 5632 5629 5624 5620 5619 5611 5606 5599 5596 5588 5579 5570 5565 5557 5545 5534 5525 5515 5505 5495 5487 5477 5466 5457 5447 5436 5425 5415 5409 5403 5399
5621 5616 5612 5610 5606 5604 5598 5591 5584 5579 5571 5563 5554 5544 5535 5525 5517 5509 5500 5490 5480 5470 5461 5451 5441 5432 5421 5411 5402 5397 5393 5387
5605 5601 5597 5594 5591 5587 5583 5577 5570 5564 5556 5546 5537 5529 5520 5511 5502 5492 5481 5473 5462 5453 5444 5435 5427 5418 5408 5399 5390 5385 5382 5375